User: anonymous   Login
Location: Columbia
(38.9520°N, 92.3340°W)
Time: 14:12:50
(UTC-05:00)
Language:

Cosmos 1633 - Orbit

View from above orbital plane
View from above orbital plane
View from above satellite
View from above satellite

Ground track
Ground track

The orbit data is extracted from the following two-line orbital elements,

1 15592U 85020A   14295.82043898  .00011180  00000-0  51535-3 0  5832
2 15592 082.5436 205.1448 0016877 354.7533 063.8996 15.20017473616661
Epoch (UTC): 22 October 2014 19:41:25
Eccentricity: 0.0016877
inclination: 82.5436°
perigee height: 494 km
apogee height: 517 km
right ascension of ascending node: 205.1448°
argument of perigee: 354.7533°
revolutions per day: 15.20017473
mean anomaly at epoch: 63.8996°
orbit number at epoch: 61666

The dashed part of the orbit path shows where the satellite is in the earth's shadow,  

DLR